When you browse on this site, cookies collect data to enhance your experience and personalize the content and advertising you see.
Visit our Privacy Policy to learn more. By continuing to use the site, you agree to this use of cookies and data.
  • In Portugal
  • List of Countries
  • For 7 days
  • Water Temperature
  • Weather Map
  • Weather Widgets
  • user-avatar
    Login

    Hourly Weather Nakhchivan

    Today, 30 May, Saturday

    Time Temperature Precipitation Wind Pressure Humidity
    00:00 +25°C° 0 mm 1 mps 685 mmHg 33%
    01:00 +25°C° 0 mm 1 mps 685 mmHg 33%
    02:00 +24°C° 0 mm 1 mps 685 mmHg 33%
    03:00 +23°C° 0 mm 1 mps 684 mmHg 33%
    04:00 +24°C° 0 mm 1 mps 685 mmHg 33%
    05:00 +24°C° 0 mm 1 mps 685 mmHg 33%
    06:00 +24°C° 0 mm 1 mps 685 mmHg 33%
    07:00 +26°C° 0 mm 2 mps 686 mmHg 30%
    08:00 +27°C° 0 mm 2 mps 686 mmHg 27%
    09:00 +28°C° 0 mm 3 mps 686 mmHg 24%
    10:00 +29°C° 0 mm 2 mps 686 mmHg 22%
    11:00 +31°C° 0 mm 2 mps 686 mmHg 19%
    12:00 +32°C° 0 mm 2 mps 686 mmHg 17%
    13:00 +34°C° 0 mm 2 mps 686 mmHg 15%
    14:00 +35°C° 0 mm 2 mps 686 mmHg 13%
    15:00 +35°C° 0 mm 3 mps 686 mmHg 11%
    16:00 +35°C° 0 mm 3 mps 686 mmHg 12%
    17:00 +35°C° 0 mm 4 mps 686 mmHg 12%
    18:00 +35°C° 0 mm 5 mps 686 mmHg 13%
    19:00 +32°C° 0 mm 4 mps 686 mmHg 19%
    20:00 +29°C° 0 mm 3 mps 686 mmHg 25%
    21:00 +27°C° 0 mm 2 mps 686 mmHg 31%
    22:00 +26°C° 0 mm 1 mps 686 mmHg 35%
    23:00 +26°C° 0 mm 1 mps 686 mmHg 39%

    Tomorrow, 31 May, Sunday

    Time Temperature Precipitation Wind Pressure Humidity
    00:00 +25°C° 0 mm 1 mps 686 mmHg 42%
    01:00 +24°C° 0 mm 1 mps 686 mmHg 41%
    02:00 +23°C° 0 mm 1 mps 686 mmHg 40%
    03:00 +22°C° 0 mm 1 mps 686 mmHg 39%
    04:00 +23°C° 0 mm 1 mps 687 mmHg 37%
    05:00 +23°C° 0 mm 2 mps 687 mmHg 34%
    06:00 +23°C° 0 mm 2 mps 687 mmHg 31%
    07:00 +24°C° 0 mm 2 mps 688 mmHg 28%
    08:00 +25°C° 0 mm 3 mps 688 mmHg 25%
    09:00 +27°C° 0 mm 3 mps 688 mmHg 22%
    10:00 +28°C° 0 mm 3 mps 688 mmHg 21%
    11:00 +29°C° 0 mm 3 mps 688 mmHg 19%
    12:00 +30°C° 0 mm 2 mps 688 mmHg 18%
    13:00 +30°C° 0 mm 2 mps 687 mmHg 17%
    14:00 +31°C° 0 mm 1 mps 687 mmHg 16%
    15:00 +31°C° 0 mm 1 mps 687 mmHg 16%
    16:00 +31°C° 0 mm 1 mps 687 mmHg 16%
    17:00 +31°C° 0 mm 2 mps 687 mmHg 17%
    18:00 +31°C° 0 mm 2 mps 687 mmHg 17%
    19:00 +30°C° 0 mm 2 mps 687 mmHg 23%
    20:00 +28°C° 0 mm 1 mps 687 mmHg 30%
    21:00 +27°C° 0 mm 1 mps 687 mmHg 36%
    22:00 +26°C° 0 mm 1 mps 687 mmHg 39%
    23:00 +25°C° 0 mm 2 mps 686 mmHg 42%

    Day after tomorrow, 1 June, Monday

    Time Temperature Precipitation Wind Pressure Humidity
    00:00 +24°C° 0 mm 2 mps 686 mmHg 46%
    01:00 +23°C° 0 mm 1 mps 686 mmHg 47%
    02:00 +23°C° 0 mm 1 mps 686 mmHg 48%
    03:00 +22°C° 0 mm 1 mps 686 mmHg 49%
    04:00 +23°C° 0 mm 1 mps 686 mmHg 47%
    05:00 +23°C° 0 mm 1 mps 686 mmHg 45%
    06:00 +24°C° 0 mm 1 mps 686 mmHg 43%
    07:00 +25°C° 0 mm 1 mps 686 mmHg 38%
    08:00 +26°C° 0 mm 1 mps 687 mmHg 34%
    09:00 +28°C° 0 mm 1 mps 687 mmHg 29%
    10:00 +29°C° 0 mm 1 mps 687 mmHg 25%
    11:00 +31°C° 0 mm 2 mps 687 mmHg 20%
    12:00 +32°C° 0 mm 2 mps 687 mmHg 16%
    13:00 +34°C° 0 mm 2 mps 687 mmHg 14%
    14:00 +35°C° 0 mm 2 mps 687 mmHg 13%
    15:00 +35°C° 0 mm 2 mps 686 mmHg 11%
    16:00 +35°C° 0 mm 3 mps 686 mmHg 12%
    17:00 +35°C° 0 mm 3 mps 686 mmHg 13%
    18:00 +35°C° 0 mm 4 mps 686 mmHg 14%
    19:00 +33°C° 0 mm 3 mps 686 mmHg 17%
    20:00 +30°C° 0 mm 2 mps 686 mmHg 20%
    21:00 +28°C° 0 mm 2 mps 686 mmHg 23%
    22:00 +27°C° 0 mm 1 mps 686 mmHg 26%
    23:00 +26°C° 0 mm 1 mps 686 mmHg 29%

    2 June, Tuesday

    Time Temperature Precipitation Wind Pressure Humidity
    00:00 +25°C° 0 mm 1 mps 685 mmHg 31%
    01:00 +25°C° 0 mm 1 mps 685 mmHg 33%
    02:00 +24°C° 0 mm 1 mps 685 mmHg 35%
    03:00 +23°C° 0 mm 1 mps 685 mmHg 38%
    04:00 +24°C° 0 mm 1 mps 685 mmHg 37%
    05:00 +25°C° 0 mm 1 mps 685 mmHg 36%
    06:00 +26°C° 0 mm 1 mps 686 mmHg 35%
    07:00 +27°C° 0 mm 1 mps 686 mmHg 30%
    08:00 +29°C° 0 mm 2 mps 686 mmHg 24%
    09:00 +31°C° 0 mm 2 mps 686 mmHg 19%
    10:00 +33°C° 0 mm 3 mps 686 mmHg 17%
    11:00 +35°C° 0 mm 5 mps 686 mmHg 15%
    12:00 +38°C° 0 mm 7 mps 686 mmHg 13%
    13:00 +38°C° 0 mm 6 mps 686 mmHg 13%
    14:00 +38°C° 0 mm 6 mps 685 mmHg 13%
    15:00 +37°C° 0 mm 5 mps 685 mmHg 13%
    16:00 +35°C° 0 mm 5 mps 685 mmHg 17%
    17:00 +34°C° 0 mm 5 mps 684 mmHg 20%
    18:00 +32°C° 0 mm 5 mps 684 mmHg 24%
    19:00 +29°C° 0 mm 4 mps 684 mmHg 28%
    20:00 +28°C° 0 mm 2 mps 684 mmHg 31%
    21:00 +27°C° 0 mm 1 mps 684 mmHg 35%
    22:00 +26°C° 0 mm 1 mps 684 mmHg 37%
    23:00 +25°C° 0 mm 1 mps 684 mmHg 38%

    3 June, Wednesday

    Time Temperature Precipitation Wind Pressure Humidity
    00:00 +25°C° 0 mm 1 mps 684 mmHg 40%
    01:00 +24°C° 0 mm 1 mps 684 mmHg 40%
    02:00 +23°C° 0 mm 1 mps 683 mmHg 41%
    03:00 +23°C° 0 mm 1 mps 683 mmHg 42%
    04:00 +23°C° 0 mm 1 mps 684 mmHg 40%
    05:00 +24°C° 0 mm 1 mps 684 mmHg 39%
    06:00 +24°C° 0 mm 1 mps 684 mmHg 38%
    07:00 +25°C° 0 mm 1 mps 684 mmHg 34%
    08:00 +27°C° 0 mm 1 mps 684 mmHg 30%
    09:00 +28°C° 0 mm 1 mps 685 mmHg 26%
    10:00 +30°C° 0 mm 1 mps 685 mmHg 23%
    11:00 +31°C° 0 mm 1 mps 685 mmHg 20%
    12:00 +33°C° 0 mm 1 mps 685 mmHg 18%
    13:00 +34°C° 0 mm 2 mps 685 mmHg 17%
    14:00 +35°C° 0 mm 3 mps 685 mmHg 16%
    15:00 +36°C° 0 mm 3 mps 685 mmHg 15%
    16:00 +34°C° 0.1 mm 4 mps 685 mmHg 21%
    17:00 +32°C° 0.1 mm 4 mps 685 mmHg 27%
    18:00 +29°C° 0.1 mm 5 mps 685 mmHg 32%
    19:00 +28°C° 0.2 mm 3 mps 685 mmHg 36%
    20:00 +26°C° 0.2 mm 2 mps 685 mmHg 40%
    21:00 +25°C° 0.2 mm 1 mps 685 mmHg 44%
    22:00 +25°C° 0 mm 1 mps 685 mmHg 46%
    23:00 +22°C° 0 mm 0 mps 685 mmHg 48%

    4 June, Thursday

    Time Temperature Precipitation Wind Pressure Humidity
    00:00 +21°C° 0 mm 0 mps 685 mmHg 50%
    01:00 +21°C° 0 mm 0 mps 684 mmHg 50%
    02:00 +23°C° 0 mm 1 mps 684 mmHg 50%
    03:00 +22°C° 0 mm 1 mps 684 mmHg 51%
    04:00 +23°C° 0 mm 1 mps 684 mmHg 49%
    05:00 +24°C° 0 mm 1 mps 684 mmHg 47%
    06:00 +24°C° 0 mm 1 mps 684 mmHg 44%
    07:00 +26°C° 0 mm 1 mps 684 mmHg 40%
    08:00 +25°C° 0 mm 0 mps 684 mmHg 35%
    09:00 +27°C° 0 mm 0 mps 684 mmHg 31%
    10:00 +31°C° 0 mm 1 mps 684 mmHg 27%
    11:00 +32°C° 0 mm 1 mps 685 mmHg 23%
    12:00 +35°C° 0 mm 2 mps 685 mmHg 19%
    13:00 +36°C° 0 mm 3 mps 685 mmHg 17%
    14:00 +37°C° 0 mm 4 mps 685 mmHg 15%
    15:00 +39°C° 0 mm 5 mps 685 mmHg 13%
    16:00 +37°C° 0 mm 5 mps 685 mmHg 14%
    17:00 +36°C° 0 mm 4 mps 685 mmHg 14%
    18:00 +36°C° 0 mm 4 mps 685 mmHg 15%
    19:00 +34°C° 0 mm 3 mps 685 mmHg 18%
    20:00 +31°C° 0 mm 2 mps 685 mmHg 21%
    21:00 +29°C° 0 mm 1 mps 686 mmHg 24%
    22:00 +28°C° 0 mm 1 mps 685 mmHg 26%
    23:00 +27°C° 0 mm 1 mps 685 mmHg 28%
    Show more